This is the latest recevied weather packets stored in our database for station/object NZ3C. If no packets are shown the sender has not sent any weather packets the latest 10 day(s).
| Time | Temp. | Humidity | Pressure | Rain* | Wind** | Luminosity | Snow |
|---|---|---|---|---|---|---|---|
| 1777926363 | 26.67° C | 29% | 1015.5 hPa | 0 mm | - | 520 W/m² | - |
| 1777926060 | 26.67° C | 29% | 1015.6 hPa | 0 mm | - | 524 W/m² | - |
| 1777925757 | 27.22° C | 30% | 1015.5 hPa | 0 mm | - | 577 W/m² | - |
| 1777925455 | 27.22° C | 29% | 1015.8 hPa | 0 mm | - | 598 W/m² | - |
| 1777925150 | 27.22° C | 30% | 1015.9 hPa | 0 mm | - | 614 W/m² | - |
| 1777924848 | 27.22° C | 30% | 1015.7 hPa | 0 mm | - | 619 W/m² | - |
| 1777924544 | 26.67° C | 31% | 1015.7 hPa | 0 mm | - | 649 W/m² | - |
| 1777924240 | 26.67° C | 31% | 1015.9 hPa | 0 mm | - | 657 W/m² | - |
| 1777923937 | 26.67° C | 30% | 1016 hPa | 0 mm | - | 671 W/m² | - |
| 1777923632 | 26.67° C | 30% | 1016.2 hPa | 0 mm | - | 677 W/m² | - |
| 1777923329 | 26.67° C | 30% | 1015.9 hPa | 0 mm | - | 597 W/m² | - |
| 1777923028 | 26.11° C | 31% | 1016.3 hPa | 0 mm | - | 662 W/m² | - |
| 1777922726 | 26.67° C | 32% | 1016.1 hPa | 0 mm | - | 679 W/m² | - |
| 1777922424 | 26.67° C | 33% | 1016.1 hPa | 0 mm | - | 741 W/m² | - |
| 1777922121 | 26.67° C | 31% | 1016.2 hPa | 0 mm | - | 742 W/m² | - |
| 1777921817 | 26.67° C | 31% | 1016.2 hPa | 0 mm | - | 749 W/m² | - |
| 1777921513 | 26.67° C | 32% | 1016.3 hPa | 0 mm | - | 748 W/m² | - |
| 1777921210 | 26.11° C | 32% | 1016.2 hPa | 0 mm | - | 776 W/m² | - |
| 1777920907 | 26.67° C | 30% | 1016.2 hPa | 0 mm | - | 785 W/m² | - |
| 1777920603 | 26.67° C | 29% | 1016.5 hPa | 0 mm | - | 792 W/m² | - |
| 1777920298 | 26.67° C | 31% | 1016.5 hPa | 0 mm | - | 794 W/m² | - |
| 1777919994 | 26.11° C | 31% | 1016.4 hPa | 0 mm | - | 808 W/m² | - |
| 1777919692 | 26.67° C | 29% | 1016.6 hPa | 0 mm | - | 802 W/m² | - |
| 1777919390 | 26.11° C | 31% | 1016.8 hPa | 0 mm | - | 819 W/m² | - |
| 1777919086 | 26.11° C | 30% | 1016.6 hPa | 0 mm | - | 836 W/m² | - |
* Rain latest hour (hover to see other rain measurements)
** Current wind speed in m/s (hover to see current wind gust speed)